DHK001 LPPT-EGKK

Flight info

Callsign DHK001
Flight time N/A
Altitude 34000
Route LPPT/02 N0466F380 IXID1N IXIDA DCT RIVRO DCT TOSDI N745 ZMR N873 DELOG DCT ERCOZ DCT BADUR DCT FEJAC DCT JSY/N0454F340 DCT REVTU UP88 VASUX VASU1G EGKK/08R
Aircraft A333/H-SDE3GHIJ2J3J5M1RVWXYZ/LB2D1

Departure

Time N/A
Airport Lisbon Humberto Delgado Airport (LPPT)

Arrival

Time 2026-05-06 23:40
Airport London Gatwick Airport (EGKK)
Time Latitude Longitude Altitude Speed Heading
2026-05-06 21:50 40.05206 -7.49287 31284 ft 507 kts 46°
2026-05-06 21:50 40.07677 -7.45995 31639 ft 507 kts 46°
2026-05-06 21:51 40.10145 -7.42703 31954 ft 508 kts 46°
2026-05-06 21:51 40.12617 -7.39402 32287 ft 508 kts 46°
2026-05-06 21:51 40.15094 -7.36091 32612 ft 508 kts 46°
2026-05-06 21:51 40.17564 -7.32785 32955 ft 508 kts 46°
2026-05-06 21:52 40.20036 -7.29472 33263 ft 508 kts 46°
2026-05-06 21:52 40.22509 -7.26156 33560 ft 509 kts 46°
2026-05-06 21:52 40.24987 -7.22829 33863 ft 510 kts 46°
2026-05-06 21:52 40.27460 -7.19504 33906 ft 510 kts 46°
2026-05-06 21:53 40.32378 -7.12882 33909 ft 508 kts 46°
2026-05-06 21:53 40.37315 -7.06219 33917 ft 508 kts 46°
2026-05-06 21:54 40.42214 -6.99594 33908 ft 508 kts 46°
2026-05-06 21:54 40.47138 -6.92918 33909 ft 508 kts 46°
2026-05-06 21:55 40.52055 -6.86238 33916 ft 508 kts 46°
2026-05-06 21:55 40.56977 -6.79536 33909 ft 508 kts 46°
2026-05-06 21:56 40.61851 -6.72889 33908 ft 508 kts 45°
2026-05-06 21:56 40.67003 -6.66514 33906 ft 508 kts 41°
2026-05-06 21:57 40.72319 -6.60380 33913 ft 508 kts 40°
2026-05-06 21:57 40.77633 -6.54233 33907 ft 507 kts 41°
2026-05-06 21:58 40.82910 -6.48045 33903 ft 507 kts 41°
2026-05-06 21:58 40.88139 -6.41863 33904 ft 507 kts 41°
2026-05-06 21:59 40.93396 -6.35630 33902 ft 507 kts 41°
2026-05-06 21:59 40.98646 -6.29393 33905 ft 507 kts 41°
2026-05-06 22:00 41.03896 -6.23143 33907 ft 507 kts 41°
2026-05-06 22:00 41.09124 -6.16906 33905 ft 507 kts 41°
2026-05-06 22:01 41.14376 -6.10627 33903 ft 507 kts 41°
2026-05-06 22:01 41.19617 -6.04346 33920 ft 506 kts 41°
2026-05-06 22:02 41.24797 -5.98125 33908 ft 504 kts 41°
2026-05-06 22:02 41.29998 -5.91865 33911 ft 504 kts 41°
2026-05-06 22:03 41.35204 -5.85585 33911 ft 504 kts 41°
2026-05-06 22:03 41.40397 -5.79305 33912 ft 504 kts 41°
2026-05-06 22:04 41.45589 -5.73014 33912 ft 503 kts 41°
2026-05-06 22:04 41.50782 -5.66771 33912 ft 501 kts 37°
2026-05-06 22:05 41.56667 -5.62009 33921 ft 497 kts 23°
2026-05-06 22:05 41.62985 -5.58252 33921 ft 497 kts 20°
2026-05-06 22:06 41.69366 -5.54695 33925 ft 496 kts 20°
2026-05-06 22:06 41.75743 -5.51141 33929 ft 495 kts 21°
2026-05-06 22:07 41.82066 -5.47576 33937 ft 495 kts 21°
2026-05-06 22:07 41.88394 -5.43983 33943 ft 495 kts 21°
2026-05-06 22:08 41.94733 -5.40371 33948 ft 493 kts 21°
2026-05-06 22:08 42.01055 -5.36763 33950 ft 493 kts 21°
2026-05-06 22:09 42.07348 -5.33164 33955 ft 493 kts 21°
2026-05-06 22:09 42.13656 -5.29549 33963 ft 491 kts 21°
2026-05-06 22:10 42.19940 -5.25940 33963 ft 490 kts 21°
2026-05-06 22:10 42.26168 -5.22356 33973 ft 490 kts 21°
2026-05-06 22:11 42.32443 -5.18737 33959 ft 488 kts 21°
2026-05-06 22:11 42.38694 -5.15123 33965 ft 487 kts 21°
2026-05-06 22:12 42.44930 -5.11510 33974 ft 487 kts 21°
2026-05-06 22:12 42.51141 -5.07905 34003 ft 487 kts 21°
2026-05-06 22:13 42.57361 -5.04286 33984 ft 484 kts 21°
2026-05-06 22:13 42.63517 -5.00696 33992 ft 484 kts 21°
2026-05-06 22:14 42.69702 -4.97082 33998 ft 484 kts 22°
2026-05-06 22:14 42.75894 -4.93456 34019 ft 483 kts 21°
2026-05-06 22:15 42.82070 -4.89830 33997 ft 482 kts 21°
2026-05-06 22:15 42.88196 -4.86226 34025 ft 481 kts 21°
2026-05-06 22:16 42.94345 -4.82602 34030 ft 480 kts 22°
2026-05-06 22:16 43.00418 -4.79014 34009 ft 477 kts 22°
2026-05-06 22:17 43.06510 -4.75408 34009 ft 477 kts 22°
2026-05-06 22:17 43.12581 -4.71808 34013 ft 477 kts 22°
2026-05-06 22:18 43.17659 -4.68789 34020 ft 476 kts 22°
2026-05-06 22:18 43.23749 -4.65160 34022 ft 476 kts 22°
2026-05-06 22:19 43.29792 -4.61551 34017 ft 476 kts 22°
2026-05-06 22:19 43.35871 -4.57914 34020 ft 475 kts 22°
2026-05-06 22:20 43.41937 -4.54276 34018 ft 475 kts 22°
2026-05-06 22:20 43.47958 -4.50658 34016 ft 474 kts 22°
2026-05-06 22:21 43.54024 -4.47005 34015 ft 474 kts 22°
2026-05-06 22:21 43.60040 -4.43374 34015 ft 474 kts 22°
2026-05-06 22:22 43.66087 -4.39715 34018 ft 474 kts 22°
2026-05-06 22:22 43.72135 -4.36049 34018 ft 474 kts 22°
2026-05-06 22:23 43.78194 -4.32368 34018 ft 474 kts 22°
2026-05-06 22:23 43.84240 -4.28686 34018 ft 474 kts 22°
2026-05-06 22:24 43.90236 -4.25026 34015 ft 474 kts 22°
2026-05-06 22:24 43.96283 -4.21327 34022 ft 474 kts 22°
2026-05-06 22:25 44.02319 -4.17627 34018 ft 474 kts 22°
2026-05-06 22:25 44.08354 -4.13919 34018 ft 474 kts 22°
2026-05-06 22:26 44.14351 -4.10226 34021 ft 474 kts 22°
2026-05-06 22:26 44.20384 -4.06503 34020 ft 474 kts 22°
2026-05-06 22:27 44.26420 -4.02770 34021 ft 474 kts 22°
2026-05-06 22:27 44.32555 -3.99458 34021 ft 472 kts 12°
2026-05-06 22:28 44.38987 -3.98174 34017 ft 469 kts
2026-05-06 22:28 44.45510 -3.97520 34022 ft 469 kts
2026-05-06 22:29 44.52037 -3.96986 34023 ft 469 kts
2026-05-06 22:29 44.58558 -3.96436 34021 ft 469 kts
2026-05-06 22:30 44.65057 -3.95858 34020 ft 470 kts
2026-05-06 22:30 44.71601 -3.95264 34021 ft 470 kts
2026-05-06 22:31 44.78094 -3.94672 34020 ft 470 kts
2026-05-06 22:31 44.84623 -3.94077 34020 ft 470 kts
2026-05-06 22:32 44.91145 -3.93481 34020 ft 470 kts
2026-05-06 22:32 44.97680 -3.92884 34020 ft 470 kts
2026-05-06 22:33 45.04174 -3.92288 34020 ft 470 kts
2026-05-06 22:33 45.10711 -3.91688 34020 ft 470 kts
2026-05-06 22:34 45.17247 -3.91086 34023 ft 470 kts
2026-05-06 22:34 45.23736 -3.90488 34023 ft 469 kts
2026-05-06 22:35 45.30255 -3.89885 34023 ft 469 kts
2026-05-06 22:35 45.36784 -3.89281 34020 ft 469 kts
2026-05-06 22:36 45.43295 -3.88677 34020 ft 468 kts
2026-05-06 22:36 45.49757 -3.88076 34020 ft 468 kts
2026-05-06 22:37 45.56258 -3.87471 34020 ft 467 kts
2026-05-06 22:37 45.62737 -3.86866 34020 ft 467 kts
2026-05-06 22:38 45.69237 -3.86258 34020 ft 467 kts
2026-05-06 22:38 45.75684 -3.85653 34021 ft 466 kts
2026-05-06 22:39 45.82171 -3.85043 34020 ft 466 kts
2026-05-06 22:39 45.88609 -3.84437 34020 ft 466 kts
2026-05-06 22:40 45.95086 -3.83825 34021 ft 466 kts
2026-05-06 22:40 46.01522 -3.83216 34020 ft 465 kts
2026-05-06 22:41 46.11220 -3.82295 34018 ft 465 kts
2026-05-06 22:42 46.17684 -3.81679 34015 ft 465 kts
2026-05-06 22:42 46.24160 -3.81060 34015 ft 465 kts
2026-05-06 22:43 46.30584 -3.80444 34019 ft 465 kts
2026-05-06 22:43 46.37047 -3.79824 34015 ft 464 kts
2026-05-06 22:44 46.43491 -3.79203 34015 ft 463 kts
2026-05-06 22:44 46.49895 -3.78586 34009 ft 463 kts
2026-05-06 22:45 46.56332 -3.77963 34004 ft 463 kts
2026-05-06 22:45 46.62766 -3.77339 34008 ft 463 kts
2026-05-06 22:46 46.69170 -3.76716 34006 ft 463 kts
2026-05-06 22:46 46.75608 -3.76088 34008 ft 463 kts
2026-05-06 22:47 46.82035 -3.75460 34004 ft 463 kts
2026-05-06 22:47 46.88461 -3.74830 34002 ft 463 kts
2026-05-06 22:48 46.94842 -3.74204 34004 ft 462 kts
2026-05-06 22:48 47.01254 -3.73572 34002 ft 461 kts
2026-05-06 22:49 47.07660 -3.72940 33999 ft 461 kts
2026-05-06 22:49 47.14089 -3.72304 34005 ft 461 kts
2026-05-06 22:50 47.20496 -3.71669 34004 ft 461 kts
2026-05-06 22:50 47.26865 -3.71035 34005 ft 461 kts
2026-05-06 22:51 47.33283 -3.70396 34009 ft 461 kts
2026-05-06 22:51 47.39648 -3.69760 34003 ft 460 kts
2026-05-06 22:52 47.46049 -3.69120 34004 ft 460 kts
2026-05-06 22:52 47.52420 -3.68481 34009 ft 460 kts
2026-05-06 22:53 47.58821 -3.67838 34013 ft 461 kts
2026-05-06 22:53 47.65235 -3.67193 34016 ft 461 kts
2026-05-06 22:54 47.71608 -3.66550 34020 ft 461 kts
2026-05-06 22:54 47.78009 -3.65902 34018 ft 461 kts
2026-05-06 22:55 47.84415 -3.65253 34016 ft 461 kts
2026-05-06 22:55 47.90826 -3.64602 34015 ft 462 kts
2026-05-06 22:56 47.97215 -3.63951 34017 ft 462 kts
2026-05-06 22:56 48.03641 -3.63295 34018 ft 462 kts
2026-05-06 22:57 48.10052 -3.62638 34018 ft 462 kts
2026-05-06 22:57 48.16435 -3.61982 34018 ft 462 kts
2026-05-06 22:58 48.22838 -3.61323 34020 ft 457 kts
2026-05-06 22:58 48.29115 -3.60004 34020 ft 456 kts 14°
2026-05-06 22:59 48.34895 -3.56067 34020 ft 459 kts 33°
2026-05-06 22:59 48.39593 -3.49639 34014 ft 461 kts 46°
2026-05-06 23:00 48.43875 -3.42393 34034 ft 462 kts 48°
2026-05-06 23:00 48.48087 -3.35023 34033 ft 463 kts 48°
2026-05-06 23:01 48.52284 -3.27720 34014 ft 463 kts 47°
2026-05-06 23:01 48.56527 -3.20384 34033 ft 463 kts 47°
2026-05-06 23:02 48.60746 -3.13091 34017 ft 463 kts 47°
2026-05-06 23:02 48.64989 -3.05737 34021 ft 464 kts 47°
2026-05-06 23:03 48.69123 -2.98259 34022 ft 465 kts 54°
2026-05-06 23:03 48.71976 -2.89474 34017 ft 466 kts 71°
2026-05-06 23:04 48.73767 -2.80064 34016 ft 468 kts 75°
2026-05-06 23:04 48.75360 -2.70484 34010 ft 468 kts 75°
2026-05-06 23:05 48.77379 -2.61138 34019 ft 466 kts 62°
2026-05-06 23:05 48.81097 -2.53277 34022 ft 461 kts 42°
2026-05-06 23:06 48.86012 -2.47011 34012 ft 461 kts 36°
2026-05-06 23:06 48.91121 -2.41092 34016 ft 461 kts 35°
2026-05-06 23:07 48.96238 -2.35197 34019 ft 461 kts 36°
2026-05-06 23:07 49.01299 -2.29285 34016 ft 461 kts 36°
2026-05-06 23:08 49.06380 -2.23293 34030 ft 461 kts 36°
2026-05-06 23:08 49.10599 -2.18298 34023 ft 462 kts 36°
2026-05-06 23:09 49.16507 -2.11286 34026 ft 462 kts 36°
2026-05-06 23:09 49.20736 -2.06282 34020 ft 461 kts 34°
2026-05-06 23:10 49.27097 -2.00376 34023 ft 459 kts 28°
2026-05-06 23:10 49.31775 -1.96374 34023 ft 460 kts 27°
2026-05-06 23:11 49.37361 -1.91657 34021 ft 460 kts 27°
2026-05-06 23:11 49.42984 -1.86892 34023 ft 460 kts 27°
2026-05-06 23:12 49.48552 -1.82143 34020 ft 460 kts 27°
2026-05-06 23:12 49.54161 -1.77340 34024 ft 461 kts 27°
2026-05-06 23:13 49.59836 -1.72721 34021 ft 460 kts 20°
2026-05-06 23:13 49.65770 -1.69192 34023 ft 459 kts 18°
2026-05-06 23:14 49.71786 -1.65853 34020 ft 459 kts 17°
2026-05-06 23:14 49.77788 -1.62563 33834 ft 452 kts 17°
2026-05-06 23:14 49.80771 -1.60922 32883 ft 458 kts 18°
2026-05-06 23:15 49.83755 -1.59275 32070 ft 463 kts 18°
2026-05-06 23:15 49.86801 -1.57587 31320 ft 466 kts 18°
2026-05-06 23:15 49.89867 -1.55881 30597 ft 468 kts 18°
2026-05-06 23:15 49.92918 -1.54179 30072 ft 464 kts 18°
2026-05-06 23:16 49.95956 -1.52481 29461 ft 461 kts 18°
2026-05-06 23:16 49.98959 -1.50799 28909 ft 457 kts 18°
2026-05-06 23:16 50.01953 -1.49198 28365 ft 452 kts 17°
2026-05-06 23:16 50.04932 -1.47707 27823 ft 448 kts 16°
2026-05-06 23:17 50.07900 -1.46270 27279 ft 445 kts 15°
2026-05-06 23:17 50.10851 -1.44858 26736 ft 441 kts 15°
2026-05-06 23:17 50.13743 -1.43472 26195 ft 439 kts 15°
2026-05-06 23:17 50.16657 -1.42067 25660 ft 436 kts 15°
2026-05-06 23:18 50.19546 -1.40664 25123 ft 434 kts 16°
2026-05-06 23:18 50.22419 -1.39260 24579 ft 431 kts 16°
2026-05-06 23:18 50.25275 -1.37858 24038 ft 429 kts 16°
2026-05-06 23:18 50.28120 -1.36455 23465 ft 427 kts 16°
2026-05-06 23:19 50.30949 -1.35058 22859 ft 424 kts 16°
2026-05-06 23:19 50.33756 -1.33669 22318 ft 420 kts 16°
2026-05-06 23:19 50.36502 -1.32309 21789 ft 416 kts 16°
2026-05-06 23:19 50.39256 -1.30944 21249 ft 412 kts 16°
2026-05-06 23:20 50.41987 -1.29589 20727 ft 409 kts 16°
2026-05-06 23:20 50.44691 -1.28246 20190 ft 406 kts 16°
2026-05-06 23:20 50.47377 -1.26910 19672 ft 402 kts 16°
2026-05-06 23:20 50.49941 -1.25336 19151 ft 401 kts 26°
2026-05-06 23:21 50.52253 -1.22898 18653 ft 399 kts 37°
2026-05-06 23:21 50.54399 -1.20140 18104 ft 396 kts 38°
2026-05-06 23:21 50.56500 -1.17354 17562 ft 392 kts 39°
2026-05-06 23:21 50.58575 -1.14598 17056 ft 388 kts 38°
2026-05-06 23:22 50.60628 -1.11876 16553 ft 383 kts 39°
2026-05-06 23:22 50.62664 -1.09181 16062 ft 379 kts 39°
2026-05-06 23:22 50.64648 -1.06553 15557 ft 375 kts 40°
2026-05-06 23:22 50.66505 -1.03672 15066 ft 373 kts 47°
2026-05-06 23:23 50.68165 -1.00580 14772 ft 364 kts 50°
2026-05-06 23:23 50.69737 -0.97544 14704 ft 349 kts 50°
2026-05-06 23:23 50.71239 -0.94631 14570 ft 336 kts 50°
2026-05-06 23:23 50.72695 -0.91808 14419 ft 326 kts 49°
2026-05-06 23:24 50.74089 -0.89108 14276 ft 316 kts 49°
2026-05-06 23:24 50.75454 -0.86464 14139 ft 306 kts 49°
2026-05-06 23:24 50.76783 -0.83889 13963 ft 299 kts 49°
2026-05-06 23:24 50.78101 -0.81337 13567 ft 301 kts 49°
2026-05-06 23:25 50.79427 -0.78767 13212 ft 300 kts 49°
2026-05-06 23:25 50.80668 -0.76109 12995 ft 302 kts 59°
2026-05-06 23:25 50.81416 -0.73005 12715 ft 303 kts 75°
2026-05-06 23:25 50.81842 -0.69732 12482 ft 304 kts 78°
2026-05-06 23:26 50.82211 -0.66449 12254 ft 303 kts 79°
2026-05-06 23:26 50.82573 -0.63211 12025 ft 302 kts 79°
2026-05-06 23:26 50.82942 -0.59946 11809 ft 301 kts 78°
2026-05-06 23:26 50.83314 -0.56689 11579 ft 300 kts 78°
2026-05-06 23:27 50.83687 -0.53440 11371 ft 299 kts 79°
2026-05-06 23:27 50.84058 -0.50205 11134 ft 298 kts 79°
2026-05-06 23:27 50.84429 -0.46979 10913 ft 297 kts 79°
2026-05-06 23:27 50.84793 -0.43805 10694 ft 296 kts 78°
2026-05-06 23:28 50.85160 -0.40601 10465 ft 295 kts 78°
2026-05-06 23:28 50.85525 -0.37408 10247 ft 295 kts 79°
2026-05-06 23:28 50.85888 -0.34221 10033 ft 293 kts 79°
2026-05-06 23:28 50.86248 -0.31050 9803 ft 292 kts 79°
2026-05-06 23:29 50.86607 -0.27887 9558 ft 291 kts 79°
2026-05-06 23:29 50.86964 -0.24732 9357 ft 290 kts 79°
2026-05-06 23:29 50.87318 -0.21588 9158 ft 286 kts 79°
2026-05-06 23:29 50.87660 -0.18547 8995 ft 277 kts 79°
2026-05-06 23:30 50.87990 -0.15603 8790 ft 270 kts 79°
2026-05-06 23:30 50.88315 -0.12701 8593 ft 264 kts 79°
2026-05-06 23:30 50.88643 -0.09869 8387 ft 258 kts 76°
2026-05-06 23:30 50.89253 -0.07239 8187 ft 251 kts 58°
2026-05-06 23:31 50.90383 -0.05199 7967 ft 245 kts 35°
2026-05-06 23:31 50.91894 -0.04037 7809 ft 241 kts 13°
2026-05-06 23:31 50.93550 -0.03872 7622 ft 239 kts 352°
2026-05-06 23:31 50.95118 -0.04708 7424 ft 240 kts 329°
2026-05-06 23:32 50.96361 -0.06394 7255 ft 239 kts 308°
2026-05-06 23:32 50.97135 -0.08722 7091 ft 239 kts 288°
2026-05-06 23:32 50.97540 -0.11284 6805 ft 240 kts 282°
2026-05-06 23:32 50.97868 -0.13902 6366 ft 242 kts 281°
2026-05-06 23:33 50.98186 -0.16504 5990 ft 239 kts 281°
2026-05-06 23:33 50.98653 -0.19023 5593 ft 238 kts 296°
2026-05-06 23:33 50.99578 -0.21185 5228 ft 236 kts 308°
2026-05-06 23:33 51.00640 -0.23160 4861 ft 234 kts 311°
2026-05-06 23:34 51.01701 -0.25070 4472 ft 233 kts 311°
2026-05-06 23:34 51.02772 -0.26998 4111 ft 231 kts 311°
2026-05-06 23:34 51.03828 -0.28910 3750 ft 229 kts 311°
2026-05-06 23:34 51.04858 -0.30786 3580 ft 220 kts 311°
2026-05-06 23:35 51.05839 -0.32577 3450 ft 209 kts 311°
2026-05-06 23:35 51.06772 -0.34281 3311 ft 200 kts 311°
2026-05-06 23:35 51.07676 -0.35939 3106 ft 196 kts 311°
2026-05-06 23:35 51.08535 -0.37513 3034 ft 185 kts 311°
2026-05-06 23:36 51.09374 -0.39045 2995 ft 182 kts 313°
2026-05-06 23:36 51.10391 -0.40195 2905 ft 182 kts 343°
2026-05-06 23:36 51.11607 -0.39951 2628 ft 181 kts 33°
2026-05-06 23:36 51.12301 -0.38326 2399 ft 182 kts 71°
2026-05-06 23:37 51.12531 -0.36360 2173 ft 179 kts 88°
2026-05-06 23:37 51.12575 -0.34405 1933 ft 172 kts 79°
2026-05-06 23:37 51.12860 -0.32624 1792 ft 160 kts 72°
2026-05-06 23:37 51.13152 -0.31016 1623 ft 147 kts 73°
2026-05-06 23:38 51.13374 -0.29460 1406 ft 143 kts 75°
2026-05-06 23:38 51.13574 -0.27911 1242 ft 144 kts 78°
2026-05-06 23:38 51.13783 -0.26347 1018 ft 144 kts 75°
2026-05-06 23:38 51.14027 -0.24816 815 ft 141 kts 75°
2026-05-06 23:39 51.14224 -0.23315 627 ft 139 kts 77°
2026-05-06 23:39 51.14432 -0.21839 433 ft 135 kts 76°
2026-05-06 23:39 51.14630 -0.20366 251 ft 135 kts 76°
2026-05-06 23:39 51.14820 -0.18998 216 ft 108 kts 78°
2026-05-06 23:40 51.14940 -0.18135 219 ft 51 kts 77°
2026-05-06 23:40 51.15005 -0.17669 223 ft 40 kts 77°
2026-05-06 23:40 51.15086 -0.17294 220 ft 31 kts 57°
2026-05-06 23:40 51.15172 -0.17234 214 ft 13 kts 326°
2026-05-06 23:41 51.15251 -0.17323 218 ft 15 kts 328°
2026-05-06 23:41 51.15301 -0.17429 219 ft 9 kts 266°
2026-05-06 23:41 51.15289 -0.17541 216 ft 12 kts 258°
2026-05-06 23:41 51.15270 -0.17680 218 ft 14 kts 258°
2026-05-06 23:42 51.15243 -0.17876 218 ft 24 kts 257°
2026-05-06 23:42 51.15202 -0.18172 214 ft 28 kts 257°
2026-05-06 23:42 51.15166 -0.18482 214 ft 29 kts 257°
2026-05-06 23:42 51.15188 -0.18706 216 ft 17 kts 345°
2026-05-06 23:43 51.15306 -0.18747 214 ft 18 kts 348°
2026-05-06 23:43 51.15402 -0.18773 216 ft 7 kts
2026-05-06 23:43 51.15430 -0.18720 216 ft 7 kts 71°
2026-05-06 23:43 51.15438 -0.18665 210 ft 3 kts 77°
2026-05-06 23:44 51.15440 -0.18647 208 ft 0 kts 77°